Regional Weather Roundup
Issued by NWS

Home | Current Version | Previous Version | Graphics & Text | Print | Product List | Glossary On
Versions: 1 2 3 4 5 6 7 8 9 10 11 12 13 14 15 16 17 18 19 20 21 22 23 24 25 26 27 28 29 30 31 32 33 34 35 36 37 38 39 40 41 42 43 44 45 46 47 48 49 50
000
ASUS43 KBIS 310210
RWRND

NORTH DAKOTA REGIONAL WEATHER ROUNDUP
NATIONAL WEATHER SERVICE BISMARCK ND
900 PM CDT SUN AUG 30 2015

NOTE: "FAIR" INDICATES FEW OR NO CLOUDS BELOW 12,000 FEET WITH NO
SIGNIFICANT WEATHER AND/OR OBSTRUCTIONS TO VISIBILITY.


NDZ001>003-009>011-017-310300-
NORTHWEST NORTH DAKOTA

CITY           SKY/WX    TMP DP  RH WIND       PRES   REMARKS
WILLISTON      PTCLDY    71  48  43 CALM      29.71S
MINOT          CLOUDY    74  55  51 NW8       29.67R
MINOT AFB      CLOUDY    74  56  54 NW6       29.67R
$$

NDZ018>021-031>035-040>046-310300-
SOUTHWEST NORTH DAKOTA

CITY           SKY/WX    TMP DP  RH WIND       PRES   REMARKS
BISMARCK       CLEAR     85  54  34 N13       29.64R
DICKINSON      MOCLDY    74  49  41 N9        29.71F
GARRISON         N/A     71  58  63 NW9       29.68R
HETTINGER ARPT PTCLDY    77  51  40 N8        29.73R
$$

NDZ004>008-012>016-024-026-027-054-310300-
NORTHEAST NORTH DAKOTA

CITY           SKY/WX    TMP DP  RH WIND       PRES   REMARKS
GRAND FORKS    MOCLDY    78  69  73 S15       29.65S
GRND FRKS AFB  MOCLDY    78  70  75 S15       29.66S
DEVILS LAKE    PTCLDY    79  64  61 S14       29.63S
$$

NDZ022-023-025-028>030-036>039-047>053-310300-
SOUTHEAST NORTH DAKOTA

CITY           SKY/WX    TMP DP  RH WIND       PRES   REMARKS
FARGO          MOCLDY    78  68  71 SE18G24   29.71S
JAMESTOWN      PTCLDY    75  68  78 S9        29.68R
$$



USA.gov is the U.S. government's official web portal to all federal, state and local government web resources and services.